sat.trackr.live / text

‹ back to catalog

STARLINK-4074

NORAD 52678 · 2022-053Y

PAYLOAD ACTIVE UNKNOWN

§ Identity

Operator
Country
US
Launch date
2022-05-18
Launch site
AFETR
Launch vehicle
Mass (kg)
RCS (m²)

Purposes: comms

External: N2YO · Heavens-Above · Gunter

§ Orbital elements

Epoch: 2026-05-24T18:05:59.976960Z

Period
95.44 min
Inclination
53.2119°
Eccentricity
0.0000907
Mean motion
15.08834528 rev/d
Perigee alt
539.1 km
Apogee alt
540.4 km
Semi-major
6,917.9 km
B*
-3.2067e-6
RAAN
162.7581°
Arg perigee
58.7174°
Mean anomaly
301.3907°
Rev number
22,265

§ Raw data

STARLINK-40741 52678U 22053Y   26144.75416640 -.00000339  00000+0 -32067-5 0  99992 52678  53.2119 162.7581 0000907  58.7174 301.3907 15.08834528222653

JSON: /api/v1/satellites/52678 · /tle

For live sub-satellite position, see the globe view (requires WebGL).

§ Visibility from observer

Set your observer location to see the next 7 days of passes ≥ 10°. The values pass through the URL so the page stays shareable.

No JS? Fill the form by hand. The geolocation button needs JavaScript.